Weather History for Paris, TX

Change the Weather History Date:

Saturday, September 28, 2013

  Actual Average Record
Temperature  
Mean Temperature 74 °F -  
Max Temperature 84 °F 80 °F 96 °F (2005)
Min Temperature 64 °F 58 °F 44 °F (1996)
Cooling Degree Days 9    
Growing Degree Days 24 (Base 50)    
Moisture  
Dew Point 63 °F    
Average Humidity 66    
Maximum Humidity 88    
Minimum Humidity 51    
Precipitation  
Precipitation 1.11 in - - ()
Sea Level Pressure  
Sea Level Pressure 29.98 in    
Wind  
Wind Speed 10 mph (SSE)    
Max Wind Speed 22 mph    
Max Gust Speed 26 mph    
Visibility 10 miles    
Events Thunderstorm    
Averages and records for this station are not official NWS values.
T = Trace of Precipitation, MM = Missing Value Source: NWS Daily Summary

Daily Weather History Graph

Daily Weather History Graph

Search for Another Location

Airport:

Trip Planner

Search our weather history database for the weather conditions in past years. The results will help you decide how hot, cold, wet, or windy it might be!

Date:

Astronomy

Sep. 28, 2013 Rise Set
Actual Time 7:14 AM CDT 7:09 PM CDT
Civil Twilight 6:49 AM CDT 7:34 PM CDT
Nautical Twilight 6:20 AM CDT 8:03 PM CDT
Astronomical Twilight 5:51 AM CDT 8:32 PM CDT
Moon 1:17 AM CDT 3:15 PM CDT
Length of Visible Light 12h 45m
Length of Day
11h 55m
Waning Crescent, 36% of the Moon is Illuminated
Sep 28
Waning Crescent
Oct 4
New
Oct 11
First Quarter
Oct 18
Full
Oct 26
Last Quarter

Hourly Weather History & Observations

Time (CDT) Temp. Heat Index Dew Point Humidity Pressure Visibility Wind Dir Wind Speed Gust Speed Precip Events Conditions
12:15 AM 73.4 °F - 57.2 °F 57% 29.94 in 10.0 mi ESE 8.1 mph - N/A   Scattered Clouds
12:35 AM 73.4 °F - 57.2 °F 57% 29.95 in 10.0 mi ESE 9.2 mph - N/A   Partly Cloudy
12:55 AM 73.4 °F - 57.2 °F 57% 29.94 in 10.0 mi SE 9.2 mph - N/A   Partly Cloudy
1:15 AM 73.4 °F - 57.2 °F 57% 29.95 in 10.0 mi SE 8.1 mph - N/A   Scattered Clouds
1:35 AM 73.4 °F - 57.2 °F 57% 29.94 in 10.0 mi SE 9.2 mph - N/A   Mostly Cloudy
1:55 AM 73.4 °F - 57.2 °F 57% 29.94 in 10.0 mi ESE 9.2 mph - N/A   Mostly Cloudy
2:15 AM 73.4 °F - 57.2 °F 57% 29.94 in 10.0 mi SE 9.2 mph - N/A   Overcast
2:35 AM 73.4 °F - 59.0 °F 61% 29.94 in 10.0 mi SE 8.1 mph - N/A   Overcast
2:55 AM 73.4 °F - 59.0 °F 61% 29.94 in 10.0 mi SE 8.1 mph - N/A   Overcast
3:15 AM 73.4 °F - 59.0 °F 61% 29.94 in 10.0 mi SE 8.1 mph - N/A   Overcast
3:35 AM 73.4 °F - 59.0 °F 61% 29.94 in 10.0 mi SE 8.1 mph - N/A   Overcast
3:55 AM 73.4 °F - 59.0 °F 61% 29.94 in 10.0 mi SE 9.2 mph - N/A   Overcast
4:15 AM 73.4 °F - 60.8 °F 65% 29.94 in 10.0 mi SE 9.2 mph - N/A   Overcast
4:35 AM 73.4 °F - 60.8 °F 65% 29.94 in 10.0 mi SSE 9.2 mph - N/A   Overcast
4:55 AM 73.4 °F - 60.8 °F 65% 29.94 in 10.0 mi SSE 10.4 mph - N/A   Overcast
5:15 AM 73.4 °F - 60.8 °F 65% 29.94 in 10.0 mi SSE 9.2 mph - N/A   Mostly Cloudy
5:35 AM 73.4 °F - 60.8 °F 65% 29.95 in 10.0 mi SSE 9.2 mph - N/A   Overcast
5:55 AM 73.4 °F - 60.8 °F 65% 29.96 in 10.0 mi SSE 8.1 mph - N/A   Overcast
6:15 AM 75.2 °F - 60.8 °F 61% 29.96 in 10.0 mi South 9.2 mph - N/A   Overcast
6:35 AM 75.2 °F - 60.8 °F 61% 29.96 in 10.0 mi South 11.5 mph - N/A   Overcast
6:55 AM 75.2 °F - 60.8 °F 61% 29.97 in 10.0 mi South 13.8 mph - N/A   Overcast
7:15 AM 75.2 °F - 60.8 °F 61% 29.98 in 10.0 mi South 12.7 mph - N/A   Overcast
7:35 AM 75.2 °F - 60.8 °F 61% 29.98 in 10.0 mi South 10.4 mph - N/A   Overcast
7:55 AM 75.2 °F - 60.8 °F 61% 29.98 in 10.0 mi South 11.5 mph - N/A   Overcast
8:15 AM 77.0 °F - 60.8 °F 57% 29.99 in 10.0 mi South 9.2 mph - N/A   Overcast
8:35 AM 77.0 °F - 60.8 °F 57% 29.99 in 10.0 mi South 11.5 mph - N/A   Overcast
8:55 AM 78.8 °F - 60.8 °F 54% 29.99 in 10.0 mi South 13.8 mph - N/A   Mostly Cloudy
9:15 AM 78.8 °F - 60.8 °F 54% 29.99 in 10.0 mi SSE 13.8 mph 19.6 mph N/A   Overcast
9:35 AM 78.8 °F - 60.8 °F 54% 30.00 in 10.0 mi South 10.4 mph - N/A   Overcast
9:55 AM 78.8 °F - 60.8 °F 54% 30.00 in 10.0 mi South 15.0 mph - N/A   Overcast
10:15 AM 80.6 °F 81.8 °F 62.6 °F 54% 30.01 in 10.0 mi South 15.0 mph 19.6 mph N/A   Mostly Cloudy
10:35 AM 80.6 °F 81.5 °F 60.8 °F 51% 30.01 in 10.0 mi South 15.0 mph 18.4 mph N/A   Mostly Cloudy
10:55 AM 82.4 °F 83.4 °F 62.6 °F 51% 30.01 in 10.0 mi South 12.7 mph - N/A   Mostly Cloudy
11:15 AM 82.4 °F 83.4 °F 62.6 °F 51% 30.01 in 10.0 mi SSW 15.0 mph 21.9 mph N/A   Mostly Cloudy
11:35 AM 82.4 °F 83.9 °F 64.4 °F 54% 30.00 in 10.0 mi South 17.3 mph - N/A   Mostly Cloudy
11:55 AM 77.0 °F - 66.2 °F 69% 30.00 in 10.0 mi South 8.1 mph - 0.01 in   Mostly Cloudy
12:15 PM 78.8 °F - 68.0 °F 69% 30.00 in 10.0 mi South 6.9 mph - N/A   Mostly Cloudy
12:35 PM 80.6 °F 83.9 °F 69.8 °F 70% 30.00 in 10.0 mi South 10.4 mph - N/A   Overcast
12:55 PM 82.4 °F 84.6 °F 66.2 °F 58% 29.99 in 10.0 mi South 12.7 mph - N/A   Mostly Cloudy
1:15 PM 84.2 °F 87.3 °F 68.0 °F 58% 29.97 in 10.0 mi South 10.4 mph - N/A   Mostly Cloudy
1:35 PM 84.2 °F 86.6 °F 66.2 °F 55% 29.98 in 10.0 mi SSW 15.0 mph - N/A   Mostly Cloudy
1:55 PM 84.2 °F 86.6 °F 66.2 °F 55% 29.97 in 10.0 mi South 16.1 mph 21.9 mph N/A   Overcast
2:15 PM 82.4 °F 85.4 °F 68.0 °F 62% 29.96 in 10.0 mi South 15.0 mph - N/A   Mostly Cloudy
2:35 PM 80.6 °F 83.2 °F 68.0 °F 65% 29.95 in 10.0 mi SSE 16.1 mph - N/A   Mostly Cloudy
2:55 PM 82.4 °F 85.4 °F 68.0 °F 62% 29.93 in 10.0 mi South 13.8 mph 18.4 mph N/A   Scattered Clouds
3:15 PM 82.4 °F 85.4 °F 68.0 °F 62% 29.93 in 10.0 mi SSE 18.4 mph 23.0 mph N/A   Scattered Clouds
3:35 PM 82.4 °F 86.3 °F 69.8 °F 66% 29.93 in 10.0 mi South 13.8 mph - N/A   Mostly Cloudy
3:55 PM 82.4 °F 85.4 °F 68.0 °F 62% 29.93 in 10.0 mi South 13.8 mph 19.6 mph N/A   Mostly Cloudy
4:15 PM 80.6 °F 83.2 °F 68.0 °F 65% 29.94 in 10.0 mi SSE 10.4 mph - N/A   Overcast
4:35 PM 80.6 °F 83.2 °F 68.0 °F 65% 29.96 in 10.0 mi WNW 21.9 mph 26.5 mph N/A Thunderstorm Thunderstorm
4:55 PM 71.6 °F - 64.4 °F 78% 29.96 in 2.0 mi East 6.9 mph - 0.71 in Thunderstorm Thunderstorm
5:15 PM 71.6 °F - 64.4 °F 78% 29.97 in 5.0 mi NNW 3.5 mph - 0.04 in Thunderstorm Thunderstorm
5:35 PM 71.6 °F - 64.4 °F 78% 29.98 in 10.0 mi Calm Calm - 0.07 in Thunderstorm Overcast
5:55 PM 71.6 °F - 64.4 °F 78% 29.98 in 9.0 mi SSW 3.5 mph - 0.13 in Thunderstorm Overcast
6:15 PM 71.6 °F - 64.4 °F 78% 29.98 in 5.0 mi Calm Calm - 0.13 in Thunderstorm Thunderstorm
6:35 PM 71.6 °F - 64.4 °F 78% 29.97 in 8.0 mi SE 5.8 mph - 0.20 in Thunderstorm Overcast
6:55 PM 71.6 °F - 64.4 °F 78% 29.99 in 10.0 mi South 8.1 mph - 0.25 in Thunderstorm Mostly Cloudy
7:15 PM 71.6 °F - 64.4 °F 78% 29.98 in 10.0 mi SE 6.9 mph - 0.01 in   Mostly Cloudy
7:35 PM 69.8 °F - 64.4 °F 83% 29.98 in 10.0 mi SE 4.6 mph - 0.01 in   Scattered Clouds
7:55 PM 69.8 °F - 64.4 °F 83% 29.98 in 10.0 mi South 4.6 mph - 0.01 in   Overcast
8:15 PM 71.6 °F - 64.4 °F 78% 29.99 in 10.0 mi SSW 3.5 mph - N/A   Overcast
8:35 PM 71.6 °F - 64.4 °F 78% 30.02 in 10.0 mi SW 4.6 mph - N/A   Overcast
8:55 PM 71.6 °F - 64.4 °F 78% 30.02 in 10.0 mi SW 4.6 mph - N/A   Overcast
9:15 PM 71.6 °F - 64.4 °F 78% 30.03 in 10.0 mi SW 3.5 mph - N/A   Overcast
9:35 PM 68.0 °F - 60.8 °F 78% 30.03 in 6.0 mi NNW 10.4 mph - N/A   Overcast
9:55 PM 66.2 °F - 60.8 °F 83% 30.03 in 5.0 mi NNW 10.4 mph - N/A   Overcast
10:15 PM 66.2 °F - 60.8 °F 83% 30.03 in 7.0 mi North 11.5 mph - N/A   Overcast
10:35 PM 66.2 °F - 60.8 °F 83% 30.04 in 9.0 mi NNW 11.5 mph - N/A   Overcast
10:55 PM 66.2 °F - 60.8 °F 83% 30.04 in 7.0 mi North 11.5 mph - N/A   Overcast
11:15 PM 66.2 °F - 60.8 °F 83% 30.04 in 10.0 mi NNW 12.7 mph - N/A   Overcast
11:35 PM 64.4 °F - 60.8 °F 88% 30.04 in 10.0 mi NNW 10.4 mph - N/A   Overcast
11:55 PM 64.4 °F - 60.8 °F 88% 30.04 in 10.0 mi North 12.7 mph - N/A   Overcast